User: anonymous   Login
Location: Oshawa
(43.9000°N, 78.8670°W)
Time: 14:57:03
(UTC-04:00)
Language:

Cosmos 1707 Rocket - Orbit

View from above orbital plane
View from above orbital plane
View from above satellite
View from above satellite

Ground track
Ground track

The orbit data is extracted from the following two-line orbital elements,

1 16327U 85113B   16270.24367428  .00000111  00000-0  10581-4 0  9991
2 16327  82.5365 339.1437 0020187 135.7494 282.8397 14.83315379662750
Epoch (UTC): 26 September 2016 05:50:53
Eccentricity: 0.0020187
inclination: 82.5365°
perigee height: 605 km
apogee height: 633 km
right ascension of ascending node: 339.1437°
argument of perigee: 135.7494°
revolutions per day: 14.83315379
mean anomaly at epoch: 282.8397°
orbit number at epoch: 66275

The dashed part of the orbit path shows where the satellite is in the earth's shadow,  

DLR